Spokane Fairchild, WA

11:11 PM PDT on April 23, 2017 (GMT -0700)
Fairchild Air Force Base

Weather History for KSKA - July, 2013

Change the Weather History Date:

Friday, July 12, 2013

  Actual Average Record
Temperature  
Mean Temperature 63 °F -  
Max Temperature 75 °F 80 °F 102 °F (2002)
Min Temperature 52 °F 54 °F 45 °F (2010)
Degree Days  
Heating Degree Days 2    
Growing Degree Days 13 (Base 50)    
Moisture  
Dew Point 35 °F    
Average Humidity 39    
Maximum Humidity 65    
Minimum Humidity 20    
Precipitation  
Precipitation 0.00 in - - ()
Sea Level Pressure  
Sea Level Pressure 29.90 in    
Wind  
Wind Speed 6 mph (SW)    
Max Wind Speed 10 mph    
Max Gust Speed 17 mph    
Visibility 10 miles    
Events      
Averages and records for this station are not official NWS values.
T = Trace of Precipitation, MM = Missing Value Source: NWS Daily Summary

Daily Weather History Graph

Daily Weather History Graph

Search for Another Location

Airport or City:

Trip Planner

Search our weather history database for the weather conditions in past years. The results will help you decide how hot, cold, wet, or windy it might be!

Date:

Astronomy

Jul. 12, 2013 Rise Set
Actual Time 5:05 AM PDT 8:46 PM PDT
Civil Twilight 4:26 AM PDT 9:25 PM PDT
Nautical Twilight 3:33 AM PDT 10:17 PM PDT
Astronomical Twilight 2:19 AM PDT 11:31 PM PDT
Moon 9:49 AM PDT (7/12) 10:34 PM PDT (7/12)
Length of Visible Light 16h 58m
Length of Day
15h 40m
Waxing Crescent, 18% of the Moon is Illuminated
Jul 12
Waxing Crescent
Jul 15
First Quarter
Jul 22
Full
Jul 29
Last Quarter
Aug 6
New

Hourly Weather History & Observations

Time (PDT) Temp. Dew Point Humidity Pressure Visibility Wind Dir Wind Speed Gust Speed Precip Events Conditions
12:58 AM 53.1 °F 33.8 °F 48% 29.85 in 10.0 mi WSW 6.9 mph - N/A   Clear
1:58 AM 53.8 °F 32.9 °F 45% 29.85 in 10.0 mi SSW 2.3 mph - N/A   Clear
2:58 AM 56.5 °F 32.0 °F 39% 29.84 in 10.0 mi SE 4.6 mph - N/A   Clear
3:58 AM 52.2 °F 40.8 °F 65% 29.86 in 10.0 mi South 6.9 mph - N/A   Clear
4:58 AM 52.9 °F 36.0 °F 53% 29.87 in 10.0 mi SSW 8.1 mph - N/A   Clear
5:58 AM 53.6 °F 34.3 °F 48% 29.88 in 10.0 mi SSW 5.8 mph - N/A   Clear
6:58 AM 53.8 °F 36.9 °F 53% 29.88 in 10.0 mi South 6.9 mph - N/A   Mostly Cloudy
7:58 AM 55.9 °F 37.6 °F 50% 29.90 in 10.0 mi South 4.6 mph - N/A   Overcast
8:58 AM 57.9 °F 40.1 °F 52% 29.92 in 10.0 mi South 5.8 mph - N/A   Overcast
9:58 AM 61.9 °F 36.3 °F 39% 29.92 in 10.0 mi SSW 6.9 mph - N/A   Overcast
10:58 AM 66.2 °F 36.1 °F 33% 29.92 in 10.0 mi Variable 3.5 mph - N/A   Mostly Cloudy
11:58 AM 69.3 °F 35.4 °F 29% 29.92 in 8.0 mi SSW 6.9 mph - N/A   Overcast
12:58 PM 70.9 °F 31.8 °F 24% 29.92 in 10.0 mi SW 9.2 mph - N/A   Overcast
1:58 PM 73.2 °F 33.1 °F 23% 29.91 in 10.0 mi SW 6.9 mph - N/A   Overcast
2:58 PM 74.1 °F 32.7 °F 22% 29.90 in 10.0 mi West 10.4 mph 17.3 mph N/A   Partly Cloudy
3:58 PM 73.6 °F 32.9 °F 23% 29.91 in 10.0 mi WNW 9.2 mph - N/A   Mostly Cloudy
4:58 PM 74.3 °F 30.9 °F 20% 29.89 in 10.0 mi West 9.2 mph - N/A   Mostly Cloudy
5:58 PM 71.2 °F 28.4 °F 20% 29.90 in 10.0 mi West 8.1 mph - N/A   Partly Cloudy
6:58 PM 69.4 °F 31.5 °F 24% 29.90 in 10.0 mi West 8.1 mph - N/A   Mostly Cloudy
8:56 PM 62.6 °F 35.6 °F 37% 29.94 in 10.0 mi NW 8.1 mph - N/A   Overcast
9:56 PM 60.8 °F 37.4 °F 42% 29.95 in 10.0 mi NW 5.8 mph - N/A   Overcast
10:56 PM 59.0 °F 39.2 °F 48% 29.96 in 10.0 mi WNW 4.6 mph - N/A   Overcast
11:56 PM 55.4 °F 39.2 °F 54% 29.98 in 10.0 mi West 4.6 mph - N/A   Clear